This is the latest recevied weather packets stored in our database for station/object KB1JLI. If no packets are shown the sender has not sent any weather packets the latest 10 day(s).
| Time | Temp. | Humidity | Pressure | Rain* | Wind** | Luminosity | Snow |
|---|---|---|---|---|---|---|---|
| 1777851024 | 10° C | 44% | 1007.7 hPa | 0 mm | - | 7 W/m² | - |
| 1777850721 | 10.56° C | 42% | 1007.6 hPa | 0 mm | - | 8 W/m² | - |
| 1777850418 | 10.56° C | 41% | 1007.5 hPa | 0 mm | - | 12 W/m² | - |
| 1777850116 | 10.56° C | 41% | 1007.8 hPa | 0 mm | - | 13 W/m² | - |
| 1777849813 | 10.56° C | 41% | 1007.7 hPa | 0 mm | - | 15 W/m² | - |
| 1777849509 | 10.56° C | 41% | 1007.8 hPa | 0 mm | - | 18 W/m² | - |
| 1777849207 | 10.56° C | 40% | 1007.5 hPa | 0 mm | - | 17 W/m² | - |
| 1777848903 | 10.56° C | 40% | 1007.5 hPa | 0 mm | - | 18 W/m² | - |
| 1777848598 | 11.11° C | 39% | 1007.3 hPa | 0 mm | - | 19 W/m² | - |
| 1777848296 | 11.11° C | 39% | 1007.3 hPa | 0 mm | - | 38 W/m² | - |
| 1777847994 | 11.11° C | 39% | 1007.4 hPa | 0 mm | - | 45 W/m² | - |
| 1777847691 | 11.11° C | 39% | 1007.3 hPa | 0 mm | - | 42 W/m² | - |
| 1777847387 | 11.11° C | 38% | 1007.1 hPa | 0 mm | - | 41 W/m² | - |
| 1777847085 | 11.11° C | 39% | 1007.1 hPa | 0 mm | - | 53 W/m² | - |
| 1777846783 | 11.11° C | 40% | 1007 hPa | 0 mm | - | 52 W/m² | - |
| 1777846481 | 11.11° C | 40% | 1006.9 hPa | 0 mm | - | 46 W/m² | - |
| 1777846178 | 11.11° C | 40% | 1007.1 hPa | 0 mm | - | 43 W/m² | - |
| 1777845874 | 11.11° C | 40% | 1006.9 hPa | 0 mm | - | 40 W/m² | - |
| 1777845571 | 11.11° C | 39% | 1006.7 hPa | 0 mm | - | 57 W/m² | - |
| 1777845268 | 11.11° C | 39% | 1006.6 hPa | 0 mm | - | 75 W/m² | - |
| 1777844966 | 11.11° C | 39% | 1006.4 hPa | 0 mm | - | 91 W/m² | - |
| 1777844663 | 11.11° C | 40% | 1006.6 hPa | 0 mm | - | 76 W/m² | - |
| 1777844360 | 11.11° C | 38% | 1006.4 hPa | 0 mm | - | 66 W/m² | - |
| 1777844059 | 11.67° C | 38% | 1006.4 hPa | 0 mm | - | 84 W/m² | - |
| 1777843755 | 11.67° C | 40% | 1006.4 hPa | 0 mm | - | 113 W/m² | - |
* Rain latest hour (hover to see other rain measurements)
** Current wind speed in m/s (hover to see current wind gust speed)